Location: Antoign�
(47.0844°N, 0.1131°W)
Time: 00:19:58
(UTC+00:00)

USA 281 - Pass Details

Date: 03 March 2021
Orbit: 1076 x 1083 km, 106.0° (Epoch: 03 April)

Event Time Altitude Azimuth Distance (km) Brightness Sun altitude
Exits shadow 21:34:29 31° 9° (N) 1,781 4.5 -37.2°
Drops below altitude 10° 21:38:12 10° 345° (NNW) 2,926 6.0 -37.7°
Sets 21:40:51 0° 339° (NNW) 3,886 6.9 -38.1°
